Location: Seven Kings
(51.5667°N, 0.1000°E)
Time: 02:29:17
(UTC+00:00)

CORIOLIS - Pass Details

Date: 29 October 2020
Orbit: 819 x 838 km, 98.7° (Epoch: 24 November)

Event Time Altitude Azimuth Distance (km) Brightness Sun altitude
Rises 17:29:12 0° 168° (SSE) 3,338 7.3 -8.6°
Reaches altitude 10° 17:31:32 10° 170° (S) 2,411 6.6 -8.9°
Maximum altitude 17:36:53 76° 256° (WSW) 853 4.4 -9.8°
Drops below altitude 10° 17:42:17 10° 342° (NNW) 2,436 6.7 -10.6°
Sets 17:44:39 0° 344° (NNW) 3,376 7.4 -11.0°
